Regional Weather Roundup
Issued by NWS Nashville, TN

Home | Current Version | Previous Version | Text Only | Print | Product List | Glossary On
Versions: 1 2 3 4 5 6 7 8 9 10 11 12 13 14 15 16 17 18 19 20 21 22 23 24 25 26 27 28 29 30 31 32 33 34 35 36 37 38 39 40 41 42 43 44 45 46 47 48 49 50
000
ASUS44 KOHX 261415
RWROHX
MIDDLE TENNESSEE HOURLY WEATHER ROUNDUP
NATIONAL WEATHER SERVICE NASHVILLE TN
900 AM CDT SAT JUL 26 2014

NOTE: "FAIR" INDICATES FEW OR NO CLOUDS BELOW 12,000 FEET WITH
NO SIGNIFICANT WEATHER AND/OR OBSTRUCTIONS TO VISIBILITY.

* THESE REPORTS ARE NOT UNDER NWS QUALITY CONTROL AND MAY NOT
  REPORT WEATHER SUCH AS PRECIPITATION AND FOG.


TNZ005>011-023>034-057-059-062>066-078-080-261500
...NORTHERN MIDDLE TENNESSEE...

CITY           SKY/WX    TMP DP  RH WIND       PRES   REMARKS
CLARKSVILLE    SUNNY     77  65  66 W6        30.04R
CROSSVILLE     SUNNY     77  63  61 VRB3      30.12R
GALLATIN         N/A     76  67  73 VRB3      30.06R
DICKSON        SUNNY     75  64  69 SW7       30.06R
LEBANON        SUNNY     76  64  66 SW5       30.05R
LIVINGSTON     SUNNY     74  62  66 SW7       30.08R
NASHVILLE      MOSUNNY   79  66  64 SW5       30.06R
WEST NASHVILLE   N/A     75  66  73 W6        30.05R
PORTLAND       SUNNY     75  66  73 SW7       30.04R
SMYRNA         SUNNY     78  68  71 CALM      30.06R
SPARTA         SUNNY     75  66  73 SW5       30.08R
$$
TNZ056-058-060-061-075>077-079-093>097-261500
...SOUTHERN MIDDLE TENNESSEE...

CITY           SKY/WX    TMP DP  RH WIND       PRES   REMARKS
COLUMBIA       SUNNY     79  70  73 S3        30.04S
FAYETTEVILLE   SUNNY     75  66  73 S8G25     30.08R
LEWISBURG      SUNNY     78  65  64 SW7       30.06R
MCMINNVILLE    SUNNY     77  70  78 SW5       30.08R
MURFREESBORO   SUNNY     77  65  66 CALM      30.06R
SHELBYVILLE    SUNNY     79  68  69 SW3       30.08R
TULLAHOMA      SUNNY     75  66  73 CALM      30.09R
WINCHESTER     SUNNY     79  64  61 CALM      30.08R
$$


...KEY TO REMARKS...
VSB - VISIBILITY IN MILES
WCI - WIND CHILL INDEX
HX  - HEAT INDEX




USA.gov is the U.S. government's official web portal to all federal, state and local government web resources and services.